AAL2077 KMIA-KJFK

Flight info

Callsign AAL2077
Flight time 2h 27m
Altitude 35000
Route FOLZZ3 ALYRA PELCN Y309 FLRDA SAGGY CHIEZ Q161 KALDA Q108 SIE CAMRN5
Aircraft B77W/H-SDE1E2E3FGHIJ2J3J4J5M1RWXY/LB1D1

Departure

Time 2026-05-06 02:48
Airport Miami International Airport (KMIA)

Arrival

Time 2026-05-06 05:16
Airport John F. Kennedy International Airport (KJFK)
Time Latitude Longitude Altitude Speed Heading
2026-05-06 02:19 25.79779 -80.27941 25 ft 0 kts 177°
2026-05-06 02:35 25.79796 -80.27942 25 ft 4 kts 177°
2026-05-06 02:35 25.79823 -80.27943 21 ft 4 kts 177°
2026-05-06 02:36 25.79850 -80.27945 20 ft 3 kts 177°
2026-05-06 02:36 25.79870 -80.27945 20 ft 4 kts 211°
2026-05-06 02:36 25.79880 -80.27926 19 ft 3 kts 267°
2026-05-06 02:36 25.79881 -80.27897 19 ft 4 kts 267°
2026-05-06 02:37 25.79882 -80.27886 19 ft 2 kts 267°
2026-05-06 02:42 25.79882 -80.27889 19 ft 2 kts 267°
2026-05-06 02:42 25.79900 -80.27902 19 ft 5 kts
2026-05-06 02:42 25.79976 -80.27889 18 ft 15 kts 356°
2026-05-06 02:42 25.80048 -80.27953 16 ft 13 kts 279°
2026-05-06 02:43 25.80048 -80.28050 16 ft 13 kts 268°
2026-05-06 02:43 25.80043 -80.28148 18 ft 13 kts 266°
2026-05-06 02:43 25.80039 -80.28245 20 ft 13 kts 267°
2026-05-06 02:43 25.80035 -80.28343 20 ft 13 kts 268°
2026-05-06 02:44 25.80031 -80.28442 20 ft 13 kts 268°
2026-05-06 02:44 25.80028 -80.28541 22 ft 13 kts 268°
2026-05-06 02:44 25.80024 -80.28641 27 ft 13 kts 268°
2026-05-06 02:44 25.80021 -80.28740 27 ft 13 kts 268°
2026-05-06 02:45 25.80016 -80.28842 27 ft 15 kts 265°
2026-05-06 02:45 25.80008 -80.28991 30 ft 21 kts 267°
2026-05-06 02:45 25.80001 -80.29152 27 ft 21 kts 267°
2026-05-06 02:45 25.79995 -80.29313 24 ft 22 kts 267°
2026-05-06 02:46 25.79987 -80.29499 18 ft 26 kts 267°
2026-05-06 02:46 25.79979 -80.29698 19 ft 26 kts 267°
2026-05-06 02:46 25.79972 -80.29897 16 ft 26 kts 268°
2026-05-06 02:46 25.79971 -80.30011 17 ft 17 kts 282°
2026-05-06 02:47 25.80025 -80.30109 19 ft 8 kts 313°
2026-05-06 02:47 25.80073 -80.30105 19 ft 8 kts 52°
2026-05-06 02:47 25.80076 -80.30048 18 ft 0 kts 90°
2026-05-06 02:47 25.80077 -80.29966 17 ft 38 kts 88°
2026-05-06 02:48 25.80104 -80.29350 23 ft 118 kts 87°
2026-05-06 02:48 25.80161 -80.28186 39 ft 179 kts 86°
2026-05-06 02:48 25.80229 -80.26785 731 ft 181 kts 86°
2026-05-06 02:48 25.80149 -80.25403 1603 ft 178 kts 99°
2026-05-06 02:49 25.79793 -80.24066 2230 ft 187 kts 112°
2026-05-06 02:49 25.79145 -80.22758 2736 ft 198 kts 116°
2026-05-06 02:49 25.78467 -80.21376 3263 ft 210 kts 117°
2026-05-06 02:49 25.77734 -80.19900 3703 ft 229 kts 117°
2026-05-06 02:50 25.76940 -80.18242 3940 ft 259 kts 116°
2026-05-06 02:50 25.76085 -80.16385 4448 ft 273 kts 115°
2026-05-06 02:50 25.75308 -80.14558 5784 ft 249 kts 112°
2026-05-06 02:50 25.74605 -80.12893 6949 ft 235 kts 112°
2026-05-06 02:51 25.74258 -80.10992 6859 ft 276 kts 86°
2026-05-06 02:51 25.74830 -80.08848 6879 ft 304 kts 56°
2026-05-06 02:51 25.76146 -80.07130 8174 ft 272 kts 38°
2026-05-06 02:51 25.77445 -80.05938 10090 ft 222 kts 36°
2026-05-06 02:52 25.78506 -80.04826 11122 ft 201 kts 45°
2026-05-06 02:52 25.79425 -80.03659 11588 ft 205 kts 46°
2026-05-06 02:52 25.80346 -80.02406 11772 ft 220 kts 48°
2026-05-06 02:52 25.81370 -80.01054 11941 ft 239 kts 46°
2026-05-06 02:53 25.82539 -79.99572 12109 ft 267 kts 46°
2026-05-06 02:53 25.83805 -79.97971 12335 ft 294 kts 46°
2026-05-06 02:53 25.85131 -79.96289 12561 ft 321 kts 46°
2026-05-06 02:53 25.86664 -79.94339 12793 ft 350 kts 47°
2026-05-06 02:54 25.88328 -79.92220 13004 ft 378 kts 47°
2026-05-06 02:54 25.90099 -79.89963 13518 ft 395 kts 47°
2026-05-06 02:54 25.91918 -79.87640 14289 ft 403 kts 47°
2026-05-06 02:54 25.93745 -79.85307 15146 ft 407 kts 46°
2026-05-06 02:55 25.95613 -79.82921 16045 ft 411 kts 46°
2026-05-06 02:55 25.97498 -79.80516 16907 ft 415 kts 46°
2026-05-06 02:55 25.99405 -79.78083 17743 ft 420 kts 46°
2026-05-06 02:55 26.01333 -79.75622 18536 ft 424 kts 46°
2026-05-06 02:56 26.03284 -79.73129 19295 ft 430 kts 46°
2026-05-06 02:56 26.05260 -79.70604 20004 ft 436 kts 45°
2026-05-06 02:56 26.07262 -79.68044 20699 ft 441 kts 45°
2026-05-06 02:56 26.09288 -79.65455 21385 ft 446 kts 45°
2026-05-06 02:57 26.11315 -79.62820 22030 ft 452 kts 47°
2026-05-06 02:57 26.13220 -79.59994 22645 ft 459 kts 51°
2026-05-06 02:57 26.15044 -79.57050 23227 ft 465 kts 52°
2026-05-06 02:57 26.16868 -79.54051 23796 ft 470 kts 52°
2026-05-06 02:58 26.18725 -79.51026 24311 ft 475 kts 51°
2026-05-06 02:58 26.20614 -79.47999 24890 ft 479 kts 50°
2026-05-06 02:58 26.22538 -79.44953 25468 ft 481 kts 50°
2026-05-06 02:58 26.24473 -79.41901 26038 ft 484 kts 50°
2026-05-06 02:59 26.25790 -79.39826 26400 ft 486 kts 50°
2026-05-06 02:59 26.27748 -79.36745 26924 ft 488 kts 49°
2026-05-06 02:59 26.29979 -79.33913 27354 ft 482 kts 34°
2026-05-06 02:59 26.32719 -79.31842 27775 ft 475 kts 25°
2026-05-06 03:00 26.35526 -79.29959 28203 ft 480 kts 25°
2026-05-06 03:00 26.38396 -79.28027 28678 ft 482 kts 25°
2026-05-06 03:00 26.41264 -79.26062 29177 ft 485 kts 25°
2026-05-06 03:00 26.44134 -79.24063 29649 ft 488 kts 26°
2026-05-06 03:01 26.47007 -79.22035 30080 ft 490 kts 26°
2026-05-06 03:01 26.49883 -79.19987 30556 ft 491 kts 26°
2026-05-06 03:01 26.52759 -79.17927 31106 ft 489 kts 26°
2026-05-06 03:01 26.55612 -79.15880 31725 ft 486 kts 25°
2026-05-06 03:02 26.58440 -79.13848 32334 ft 482 kts 25°
2026-05-06 03:02 26.61255 -79.11829 32905 ft 479 kts 25°
2026-05-06 03:02 26.64057 -79.09820 33398 ft 477 kts 25°
2026-05-06 03:02 26.66847 -79.07821 33920 ft 475 kts 25°
2026-05-06 03:03 26.69622 -79.05832 34438 ft 472 kts 25°
2026-05-06 03:03 26.72381 -79.03856 34905 ft 470 kts 24°
2026-05-06 03:03 26.75127 -79.01887 35067 ft 469 kts 24°
2026-05-06 03:04 26.80675 -78.98180 35058 ft 462 kts 16°
2026-05-06 03:04 26.86642 -78.95790 35073 ft 454 kts
2026-05-06 03:05 26.92866 -78.94347 35071 ft 462 kts
2026-05-06 03:05 26.99211 -78.92939 35060 ft 465 kts
2026-05-06 03:06 27.05551 -78.91503 35065 ft 464 kts
2026-05-06 03:06 27.11873 -78.90051 35064 ft 463 kts
2026-05-06 03:07 27.18171 -78.88599 35066 ft 461 kts
2026-05-06 03:07 27.24454 -78.87149 35074 ft 461 kts
2026-05-06 03:08 27.30736 -78.85697 35075 ft 461 kts
2026-05-06 03:08 27.37019 -78.84245 35073 ft 461 kts
2026-05-06 03:09 27.43308 -78.82789 35071 ft 461 kts
2026-05-06 03:09 27.49600 -78.81331 35075 ft 462 kts
2026-05-06 03:10 27.55908 -78.79868 35077 ft 463 kts
2026-05-06 03:10 27.62198 -78.78406 35081 ft 457 kts
2026-05-06 03:11 27.68350 -78.76968 35075 ft 449 kts
2026-05-06 03:11 27.74486 -78.75544 35077 ft 451 kts
2026-05-06 03:12 27.80605 -78.74122 35081 ft 452 kts
2026-05-06 03:12 27.86773 -78.72685 35079 ft 453 kts
2026-05-06 03:13 27.92957 -78.71239 35082 ft 454 kts
2026-05-06 03:13 27.99153 -78.69790 35077 ft 455 kts
2026-05-06 03:14 28.05364 -78.68335 35069 ft 456 kts
2026-05-06 03:14 28.11574 -78.66878 35068 ft 456 kts
2026-05-06 03:15 28.17773 -78.65423 35062 ft 455 kts
2026-05-06 03:15 28.23972 -78.63966 35061 ft 454 kts
2026-05-06 03:16 28.30171 -78.62505 35063 ft 454 kts
2026-05-06 03:16 28.36361 -78.61049 35066 ft 454 kts
2026-05-06 03:17 28.42549 -78.59590 35065 ft 454 kts
2026-05-06 03:17 28.48738 -78.58128 35069 ft 454 kts
2026-05-06 03:18 28.54926 -78.56665 35074 ft 454 kts
2026-05-06 03:18 28.61115 -78.55199 35063 ft 454 kts
2026-05-06 03:19 28.67300 -78.53735 35062 ft 454 kts
2026-05-06 03:19 28.73440 -78.52278 35079 ft 453 kts
2026-05-06 03:20 28.82700 -78.50078 35070 ft 453 kts
2026-05-06 03:20 28.88896 -78.48603 35069 ft 452 kts
2026-05-06 03:21 28.95013 -78.47146 35070 ft 452 kts
2026-05-06 03:21 29.01163 -78.45679 35071 ft 451 kts
2026-05-06 03:22 29.07307 -78.44210 35073 ft 451 kts
2026-05-06 03:22 29.13445 -78.42743 35071 ft 450 kts
2026-05-06 03:23 29.19584 -78.41272 35078 ft 450 kts
2026-05-06 03:23 29.25711 -78.39805 35078 ft 450 kts
2026-05-06 03:24 29.31831 -78.38336 35072 ft 450 kts
2026-05-06 03:24 29.37956 -78.36863 35072 ft 449 kts
2026-05-06 03:25 29.44075 -78.35392 35073 ft 449 kts
2026-05-06 03:25 29.50220 -78.34571 35084 ft 442 kts 356°
2026-05-06 03:26 29.56326 -78.34806 35097 ft 438 kts 351°
2026-05-06 03:26 29.62409 -78.35292 35089 ft 439 kts 351°
2026-05-06 03:27 29.68508 -78.35760 35081 ft 439 kts 351°
2026-05-06 03:27 29.74555 -78.36213 35087 ft 439 kts 351°
2026-05-06 03:28 29.80650 -78.36663 35080 ft 438 kts 351°
2026-05-06 03:28 29.86735 -78.37112 35085 ft 438 kts 351°
2026-05-06 03:29 29.92808 -78.37564 35081 ft 437 kts 351°
2026-05-06 03:29 29.98880 -78.38013 35086 ft 437 kts 351°
2026-05-06 03:30 30.04956 -78.38463 35087 ft 437 kts 351°
2026-05-06 03:30 30.11032 -78.38909 35080 ft 438 kts 353°
2026-05-06 03:31 30.17167 -78.38618 35084 ft 446 kts
2026-05-06 03:31 30.23314 -78.37636 35085 ft 446 kts
2026-05-06 03:32 30.29466 -78.36683 35084 ft 446 kts
2026-05-06 03:32 30.35620 -78.35755 35075 ft 446 kts
2026-05-06 03:33 30.41767 -78.34809 35078 ft 446 kts
2026-05-06 03:33 30.47824 -78.33490 35091 ft 449 kts
2026-05-06 03:34 30.53945 -78.32043 35102 ft 449 kts
2026-05-06 03:34 30.60061 -78.30602 35103 ft 448 kts
2026-05-06 03:35 30.66173 -78.29178 35100 ft 448 kts
2026-05-06 03:35 30.72280 -78.27762 35100 ft 447 kts
2026-05-06 03:36 30.78380 -78.26347 35102 ft 448 kts
2026-05-06 03:36 30.84491 -78.24925 35108 ft 448 kts
2026-05-06 03:37 30.90610 -78.23496 35103 ft 448 kts
2026-05-06 03:37 30.96715 -78.22089 35101 ft 447 kts
2026-05-06 03:38 31.02829 -78.20732 35101 ft 447 kts
2026-05-06 03:38 31.08891 -78.19393 35104 ft 446 kts
2026-05-06 03:39 31.15008 -78.18031 35104 ft 446 kts
2026-05-06 03:39 31.21103 -78.16666 35095 ft 446 kts
2026-05-06 03:40 31.27203 -78.15302 35105 ft 446 kts
2026-05-06 03:40 31.33308 -78.13932 35100 ft 447 kts
2026-05-06 03:41 31.39418 -78.12562 35103 ft 447 kts
2026-05-06 03:41 31.45534 -78.11233 35104 ft 446 kts
2026-05-06 03:42 31.51644 -78.10192 35101 ft 443 kts
2026-05-06 03:42 31.57758 -78.09210 35109 ft 443 kts
2026-05-06 03:43 31.63856 -78.08199 35108 ft 443 kts
2026-05-06 03:43 31.69953 -78.07157 35111 ft 443 kts
2026-05-06 03:44 31.76010 -78.06118 35114 ft 443 kts
2026-05-06 03:44 31.82112 -78.05064 35111 ft 443 kts
2026-05-06 03:45 31.88218 -78.04011 35113 ft 443 kts
2026-05-06 03:45 31.94321 -78.02961 35110 ft 443 kts
2026-05-06 03:46 32.00430 -78.01906 35113 ft 444 kts
2026-05-06 03:46 32.06543 -78.00850 35112 ft 444 kts
2026-05-06 03:47 32.11620 -77.99970 35105 ft 443 kts
2026-05-06 03:47 32.18747 -77.98729 35102 ft 443 kts
2026-05-06 03:48 32.23816 -77.97852 35105 ft 443 kts
2026-05-06 03:48 32.29920 -77.96794 35114 ft 443 kts
2026-05-06 03:49 32.36013 -77.95733 35117 ft 442 kts
2026-05-06 03:49 32.42107 -77.94669 35126 ft 443 kts
2026-05-06 03:50 32.48215 -77.93604 35121 ft 444 kts
2026-05-06 03:50 32.54337 -77.92533 35121 ft 445 kts
2026-05-06 03:51 32.60473 -77.91460 35114 ft 445 kts
2026-05-06 03:51 32.66606 -77.90384 35113 ft 446 kts
2026-05-06 03:52 32.72734 -77.89311 35110 ft 445 kts
2026-05-06 03:52 32.78849 -77.88237 35114 ft 444 kts
2026-05-06 03:53 32.84968 -77.87156 35113 ft 445 kts
2026-05-06 03:53 32.91095 -77.86076 35114 ft 445 kts
2026-05-06 03:54 32.97207 -77.84995 35117 ft 444 kts
2026-05-06 03:54 33.03322 -77.83916 35113 ft 444 kts
2026-05-06 03:55 33.09434 -77.82830 35119 ft 444 kts
2026-05-06 03:55 33.15544 -77.81754 35118 ft 444 kts
2026-05-06 03:56 33.21614 -77.80679 35118 ft 443 kts
2026-05-06 03:56 33.27719 -77.79593 35118 ft 444 kts
2026-05-06 03:57 33.33825 -77.78504 35118 ft 444 kts
2026-05-06 03:57 33.39938 -77.77414 35121 ft 444 kts
2026-05-06 03:58 33.46046 -77.76323 35118 ft 443 kts
2026-05-06 03:58 33.52149 -77.75230 35122 ft 443 kts
2026-05-06 03:59 33.58250 -77.74138 35119 ft 443 kts
2026-05-06 03:59 33.64343 -77.73044 35119 ft 442 kts
2026-05-06 04:00 33.70436 -77.71931 35123 ft 443 kts
2026-05-06 04:00 33.76508 -77.70616 35120 ft 443 kts
2026-05-06 04:01 33.82578 -77.69252 35124 ft 444 kts
2026-05-06 04:01 33.88658 -77.67905 35117 ft 445 kts
2026-05-06 04:02 33.94747 -77.66572 35120 ft 445 kts
2026-05-06 04:02 34.00832 -77.65242 35121 ft 445 kts
2026-05-06 04:03 34.06923 -77.63908 35120 ft 445 kts
2026-05-06 04:03 34.12970 -77.62578 35127 ft 445 kts
2026-05-06 04:04 34.19061 -77.61241 35121 ft 445 kts
2026-05-06 04:04 34.25167 -77.59891 35118 ft 446 kts
2026-05-06 04:05 34.31274 -77.58542 35115 ft 446 kts
2026-05-06 04:05 34.37404 -77.57191 35120 ft 446 kts
2026-05-06 04:06 34.43516 -77.55838 35121 ft 446 kts
2026-05-06 04:06 34.49578 -77.54373 35114 ft 452 kts
2026-05-06 04:07 34.55567 -77.51832 35123 ft 462 kts 17°
2026-05-06 04:07 34.61375 -77.48372 35123 ft 466 kts 18°
2026-05-06 04:08 34.67186 -77.44848 35127 ft 468 kts 18°
2026-05-06 04:08 34.73015 -77.41324 35115 ft 468 kts 18°
2026-05-06 04:09 34.78857 -77.37816 35121 ft 468 kts 18°
2026-05-06 04:09 34.84702 -77.34311 35123 ft 468 kts 18°
2026-05-06 04:10 34.90545 -77.30799 35119 ft 468 kts 18°
2026-05-06 04:10 34.96381 -77.27284 35124 ft 467 kts 18°
2026-05-06 04:11 35.02220 -77.23760 35129 ft 468 kts 18°
2026-05-06 04:11 35.08069 -77.20224 35133 ft 469 kts 18°
2026-05-06 04:12 35.13924 -77.16678 35128 ft 470 kts 18°
2026-05-06 04:12 35.19788 -77.13122 35124 ft 471 kts 18°
2026-05-06 04:13 35.25617 -77.09579 35131 ft 472 kts 18°
2026-05-06 04:13 35.31491 -77.06006 35120 ft 472 kts 18°
2026-05-06 04:14 35.37380 -77.02421 35118 ft 472 kts 18°
2026-05-06 04:14 35.43255 -76.98832 35122 ft 472 kts 19°
2026-05-06 04:15 35.49115 -76.95248 35118 ft 472 kts 19°
2026-05-06 04:15 35.54986 -76.91652 35118 ft 472 kts 19°
2026-05-06 04:16 35.60862 -76.88052 35124 ft 472 kts 19°
2026-05-06 04:16 35.66754 -76.84471 35122 ft 472 kts 19°
2026-05-06 04:17 35.72648 -76.80883 35120 ft 473 kts 19°
2026-05-06 04:17 35.78554 -76.77276 35121 ft 475 kts 19°
2026-05-06 04:18 35.84481 -76.73653 35117 ft 476 kts 19°
2026-05-06 04:18 35.90407 -76.70024 35105 ft 476 kts 19°
2026-05-06 04:19 35.96282 -76.66197 35108 ft 478 kts 21°
2026-05-06 04:19 36.02108 -76.62208 35109 ft 479 kts 22°
2026-05-06 04:20 36.07942 -76.58218 35115 ft 480 kts 22°
2026-05-06 04:20 36.13798 -76.54242 35111 ft 481 kts 21°
2026-05-06 04:21 36.19630 -76.50289 35112 ft 481 kts 22°
2026-05-06 04:21 36.25540 -76.46277 35110 ft 482 kts 22°
2026-05-06 04:22 36.31386 -76.42301 35102 ft 482 kts 22°
2026-05-06 04:23 36.40218 -76.36276 35101 ft 483 kts 22°
2026-05-06 04:23 36.46105 -76.32256 35103 ft 482 kts 22°
2026-05-06 04:24 36.51985 -76.28231 35097 ft 482 kts 22°
2026-05-06 04:24 36.57866 -76.24199 35095 ft 482 kts 22°
2026-05-06 04:25 36.63739 -76.20165 35094 ft 483 kts 22°
2026-05-06 04:25 36.69620 -76.16118 35082 ft 483 kts 22°
2026-05-06 04:26 36.75507 -76.12059 35086 ft 483 kts 22°
2026-05-06 04:26 36.81395 -76.07993 35079 ft 484 kts 22°
2026-05-06 04:27 36.87292 -76.03912 35068 ft 485 kts 22°
2026-05-06 04:27 36.93199 -75.99818 35067 ft 485 kts 22°
2026-05-06 04:28 36.99095 -75.95726 35065 ft 486 kts 23°
2026-05-06 04:28 37.05015 -75.91609 35067 ft 487 kts 23°
2026-05-06 04:29 37.11126 -75.88087 35059 ft 479 kts 13°
2026-05-06 04:29 37.17507 -75.85815 35065 ft 477 kts
2026-05-06 04:30 37.23891 -75.83678 35057 ft 477 kts
2026-05-06 04:30 37.30313 -75.81482 35055 ft 479 kts 10°
2026-05-06 04:31 37.36704 -75.79261 35046 ft 480 kts 10°
2026-05-06 04:31 37.43150 -75.77010 35047 ft 481 kts 10°
2026-05-06 04:32 37.49605 -75.74754 35046 ft 482 kts 10°
2026-05-06 04:32 37.56075 -75.72489 35048 ft 483 kts 10°
2026-05-06 04:33 37.62550 -75.70220 35045 ft 483 kts 10°
2026-05-06 04:33 37.69036 -75.67942 35046 ft 484 kts 10°
2026-05-06 04:34 37.75522 -75.65661 35047 ft 484 kts 10°
2026-05-06 04:34 37.80902 -75.63686 35042 ft 487 kts 14°
2026-05-06 04:35 37.87115 -75.60088 35048 ft 496 kts 24°
2026-05-06 04:35 37.92885 -75.55215 35053 ft 500 kts 30°
2026-05-06 04:36 37.98580 -75.50150 35048 ft 500 kts 29°
2026-05-06 04:36 38.04302 -75.45163 35041 ft 499 kts 29°
2026-05-06 04:37 38.10094 -75.40317 35041 ft 497 kts 27°
2026-05-06 04:37 38.15941 -75.35608 35037 ft 498 kts 27°
2026-05-06 04:38 38.21802 -75.30906 35025 ft 496 kts 23°
2026-05-06 04:38 38.28101 -75.27627 35032 ft 486 kts 11°
2026-05-06 04:39 38.34660 -75.26002 35035 ft 479 kts
2026-05-06 04:39 38.41254 -75.24752 35028 ft 479 kts
2026-05-06 04:40 38.47848 -75.23398 35025 ft 480 kts
2026-05-06 04:40 38.54444 -75.21993 35020 ft 481 kts
2026-05-06 04:41 38.61045 -75.20577 35010 ft 481 kts
2026-05-06 04:41 38.67573 -75.18940 34986 ft 487 kts 12°
2026-05-06 04:42 38.73727 -75.15329 34974 ft 481 kts 27°
2026-05-06 04:42 38.76413 -75.12844 34983 ft 469 kts 32°
2026-05-06 04:42 38.78964 -75.10290 34975 ft 463 kts 33°
2026-05-06 04:42 38.81519 -75.07723 34291 ft 472 kts 33°
2026-05-06 04:43 38.84098 -75.05149 33807 ft 468 kts 33°
2026-05-06 04:43 38.86669 -75.02599 33300 ft 465 kts 33°
2026-05-06 04:43 38.89223 -75.00078 32819 ft 461 kts 33°
2026-05-06 04:43 38.91757 -74.97587 32340 ft 458 kts 33°
2026-05-06 04:44 38.94279 -74.95109 31876 ft 454 kts 33°
2026-05-06 04:44 38.96776 -74.92654 31409 ft 451 kts 34°
2026-05-06 04:44 38.99260 -74.90210 30939 ft 447 kts 34°
2026-05-06 04:44 39.01720 -74.87786 30483 ft 444 kts 34°
2026-05-06 04:45 39.04159 -74.85378 30026 ft 441 kts 34°
2026-05-06 04:45 39.06587 -74.82980 29550 ft 438 kts 35°
2026-05-06 04:45 39.08998 -74.80599 29088 ft 435 kts 35°
2026-05-06 04:45 39.11368 -74.78203 28622 ft 433 kts 37°
2026-05-06 04:46 39.13684 -74.75725 28142 ft 432 kts 38°
2026-05-06 04:46 39.15969 -74.73223 27691 ft 430 kts 38°
2026-05-06 04:46 39.18237 -74.70732 27233 ft 428 kts 38°
2026-05-06 04:46 39.20502 -74.68254 26762 ft 426 kts 38°
2026-05-06 04:47 39.22728 -74.65828 26305 ft 424 kts 38°
2026-05-06 04:47 39.24980 -74.63382 25850 ft 422 kts 37°
2026-05-06 04:47 39.27256 -74.60914 25385 ft 421 kts 37°
2026-05-06 04:47 39.29491 -74.58490 24929 ft 419 kts 37°
2026-05-06 04:48 39.31682 -74.56110 24479 ft 418 kts 38°
2026-05-06 04:48 39.33904 -74.53693 24026 ft 416 kts 37°
2026-05-06 04:48 39.36111 -74.51292 23571 ft 415 kts 37°
2026-05-06 04:48 39.38312 -74.48895 23127 ft 413 kts 38°
2026-05-06 04:49 39.40507 -74.46503 22684 ft 412 kts 38°
2026-05-06 04:49 39.42693 -74.44118 22206 ft 410 kts 38°
2026-05-06 04:49 39.44872 -74.41740 21775 ft 409 kts 38°
2026-05-06 04:49 39.47044 -74.39370 21322 ft 408 kts 38°
2026-05-06 04:50 39.49210 -74.37002 20874 ft 407 kts 38°
2026-05-06 04:50 39.51371 -74.34638 20417 ft 406 kts 38°
2026-05-06 04:50 39.53519 -74.32285 19966 ft 405 kts 38°
2026-05-06 04:50 39.55669 -74.29930 19525 ft 404 kts 38°
2026-05-06 04:51 39.57810 -74.27582 19099 ft 401 kts 39°
2026-05-06 04:51 39.59911 -74.25274 18963 ft 389 kts 38°
2026-05-06 04:51 39.61975 -74.23007 18348 ft 393 kts 39°
2026-05-06 04:51 39.64032 -74.20747 17856 ft 380 kts 39°
2026-05-06 04:52 39.66042 -74.18534 17466 ft 377 kts 39°
2026-05-06 04:52 39.68035 -74.16339 17081 ft 375 kts 39°
2026-05-06 04:52 39.70017 -74.14157 16703 ft 372 kts 39°
2026-05-06 04:52 39.71983 -74.11991 16331 ft 370 kts 39°
2026-05-06 04:53 39.73938 -74.09831 15944 ft 368 kts 39°
2026-05-06 04:53 39.75882 -74.07685 15569 ft 366 kts 39°
2026-05-06 04:53 39.77817 -74.05546 15186 ft 364 kts 39°
2026-05-06 04:53 39.79735 -74.03425 14820 ft 361 kts 39°
2026-05-06 04:54 39.81646 -74.01309 14450 ft 359 kts 39°
2026-05-06 04:54 39.83520 -73.99232 14079 ft 357 kts 38°
2026-05-06 04:54 39.85512 -73.97340 13704 ft 352 kts 28°
2026-05-06 04:54 39.87649 -73.95811 13357 ft 351 kts 24°
2026-05-06 04:55 39.89831 -73.94371 12998 ft 350 kts 24°
2026-05-06 04:55 39.91996 -73.92932 12633 ft 349 kts 25°
2026-05-06 04:55 39.94137 -73.91472 12270 ft 347 kts 25°
2026-05-06 04:55 39.96265 -73.89988 11918 ft 345 kts 26°
2026-05-06 04:56 39.98373 -73.88498 11554 ft 344 kts 26°
2026-05-06 04:56 40.00463 -73.87012 11199 ft 342 kts 26°
2026-05-06 04:56 40.02537 -73.85535 10998 ft 334 kts 26°
2026-05-06 04:56 40.04539 -73.84105 11000 ft 327 kts 25°
2026-05-06 04:57 40.06543 -73.82676 11016 ft 329 kts 25°
2026-05-06 04:57 40.08552 -73.81245 11005 ft 327 kts 25°
2026-05-06 04:57 40.10486 -73.79765 10987 ft 318 kts 32°
2026-05-06 04:57 40.12237 -73.78029 11012 ft 317 kts 37°
2026-05-06 04:58 40.13973 -73.76192 11025 ft 325 kts 37°
2026-05-06 04:58 40.15742 -73.74305 11023 ft 330 kts 37°
2026-05-06 04:58 40.17523 -73.72402 11018 ft 330 kts 37°
2026-05-06 04:58 40.19296 -73.70505 11004 ft 328 kts 37°
2026-05-06 04:59 40.21056 -73.68616 11002 ft 326 kts 37°
2026-05-06 04:59 40.22806 -73.66732 11000 ft 325 kts 37°
2026-05-06 04:59 40.24546 -73.64855 10861 ft 324 kts 37°
2026-05-06 04:59 40.26283 -73.62981 10499 ft 324 kts 37°
2026-05-06 05:00 40.28020 -73.61105 10097 ft 325 kts 37°
2026-05-06 05:00 40.29767 -73.59217 9729 ft 325 kts 37°
2026-05-06 05:00 40.31512 -73.57334 9397 ft 326 kts 37°
2026-05-06 05:00 40.33271 -73.55434 9234 ft 329 kts 37°
2026-05-06 05:01 40.35034 -73.53525 9195 ft 328 kts 37°
2026-05-06 05:01 40.36790 -73.51617 9182 ft 327 kts 37°
2026-05-06 05:01 40.38535 -73.49713 9158 ft 326 kts 37°
2026-05-06 05:01 40.40251 -73.47842 9117 ft 324 kts 37°
2026-05-06 05:02 40.41994 -73.45950 8931 ft 317 kts 35°
2026-05-06 05:02 40.43836 -73.44491 8441 ft 315 kts 21°
2026-05-06 05:02 40.45842 -73.43347 8038 ft 314 kts 18°
2026-05-06 05:02 40.47868 -73.42268 7715 ft 314 kts 17°
2026-05-06 05:03 40.49892 -73.41198 7389 ft 312 kts 17°
2026-05-06 05:03 40.51903 -73.40139 7048 ft 312 kts 17°
2026-05-06 05:03 40.53930 -73.39172 6709 ft 307 kts 11°
2026-05-06 05:03 40.55988 -73.38475 6356 ft 305 kts
2026-05-06 05:04 40.58055 -73.37840 6046 ft 304 kts
2026-05-06 05:04 40.60110 -73.37214 5750 ft 302 kts
2026-05-06 05:04 40.62094 -73.36612 5361 ft 285 kts
2026-05-06 05:04 40.64033 -73.36022 4986 ft 286 kts
2026-05-06 05:05 40.65959 -73.35435 4739 ft 282 kts
2026-05-06 05:05 40.67863 -73.34863 4472 ft 280 kts
2026-05-06 05:05 40.69764 -73.34296 4195 ft 280 kts
2026-05-06 05:05 40.71664 -73.33733 3873 ft 280 kts
2026-05-06 05:06 40.73557 -73.33268 3560 ft 270 kts 355°
2026-05-06 05:06 40.75285 -73.33715 3437 ft 239 kts 322°
2026-05-06 05:06 40.76416 -73.35029 3367 ft 199 kts 293°
2026-05-06 05:06 40.77126 -73.36567 3380 ft 191 kts 288°
2026-05-06 05:07 40.77673 -73.38072 3319 ft 171 kts 268°
2026-05-06 05:07 40.77737 -73.39599 3395 ft 171 kts 263°
2026-05-06 05:07 40.77823 -73.41163 3418 ft 168 kts 265°
2026-05-06 05:07 40.77931 -73.42693 3409 ft 166 kts 265°
2026-05-06 05:08 40.78045 -73.44208 3399 ft 165 kts 265°
2026-05-06 05:08 40.78161 -73.45716 3403 ft 165 kts 265°
2026-05-06 05:08 40.78283 -73.47228 3396 ft 165 kts 266°
2026-05-06 05:08 40.78408 -73.48731 3393 ft 168 kts 266°
2026-05-06 05:09 40.78539 -73.50335 3404 ft 183 kts 267°
2026-05-06 05:09 40.78686 -73.52020 3372 ft 185 kts 268°
2026-05-06 05:09 40.78838 -73.53718 3385 ft 188 kts 268°
2026-05-06 05:09 40.78990 -73.55437 3391 ft 189 kts 268°
2026-05-06 05:10 40.79146 -73.57168 3342 ft 191 kts 268°
2026-05-06 05:10 40.79303 -73.58893 3245 ft 188 kts 267°
2026-05-06 05:10 40.79456 -73.60597 3143 ft 186 kts 267°
2026-05-06 05:10 40.79437 -73.62236 3049 ft 171 kts 242°
2026-05-06 05:11 40.78773 -73.63391 3035 ft 158 kts 223°
2026-05-06 05:11 40.77979 -73.64373 3050 ft 156 kts 220°
2026-05-06 05:11 40.77127 -73.65261 2844 ft 153 kts 218°
2026-05-06 05:11 40.76308 -73.66099 2672 ft 148 kts 216°
2026-05-06 05:12 40.75434 -73.66881 2504 ft 157 kts 213°
2026-05-06 05:12 40.74497 -73.67648 2281 ft 158 kts 211°
2026-05-06 05:12 40.73572 -73.68383 2070 ft 152 kts 210°
2026-05-06 05:12 40.72714 -73.69062 1890 ft 135 kts 209°
2026-05-06 05:13 40.71926 -73.69680 1720 ft 129 kts 209°
2026-05-06 05:13 40.71150 -73.70291 1535 ft 132 kts 209°
2026-05-06 05:13 40.70349 -73.70919 1362 ft 136 kts 209°
2026-05-06 05:13 40.69522 -73.71566 1172 ft 138 kts 209°
2026-05-06 05:14 40.68709 -73.72206 986 ft 134 kts 209°
2026-05-06 05:14 40.67915 -73.72828 815 ft 132 kts 209°
2026-05-06 05:14 40.67120 -73.73452 638 ft 134 kts 208°
2026-05-06 05:14 40.66315 -73.74081 466 ft 134 kts 208°
2026-05-06 05:15 40.65524 -73.74720 354 ft 134 kts 210°
2026-05-06 05:15 40.64707 -73.75327 173 ft 133 kts 210°
2026-05-06 05:15 40.63913 -73.75954 28 ft 127 kts 211°
2026-05-06 05:15 40.63272 -73.76465 27 ft 83 kts 210°
2026-05-06 05:16 40.62920 -73.76739 25 ft 51 kts 210°
2026-05-06 05:16 40.62692 -73.76910 29 ft 20 kts 209°
2026-05-06 05:16 40.62588 -73.77018 27 ft 21 kts 245°
2026-05-06 05:16 40.62578 -73.77133 27 ft 16 kts 272°
2026-05-06 05:17 40.62635 -73.77232 30 ft 14 kts 339°
2026-05-06 05:17 40.62741 -73.77244 27 ft 16 kts 21°
2026-05-06 05:17 40.62847 -73.77290 27 ft 26 kts 308°
2026-05-06 05:17 40.62994 -73.77609 29 ft 55 kts 301°
2026-05-06 05:18 40.63231 -73.78137 26 ft 78 kts 301°
2026-05-06 05:18 40.63540 -73.78818 28 ft 94 kts 300°
2026-05-06 05:18 40.63820 -73.79425 27 ft 46 kts 301°
2026-05-06 05:18 40.63961 -73.79517 26 ft 23 kts 359°
2026-05-06 05:19 40.64121 -73.79507 28 ft 23 kts
2026-05-06 05:19 40.64279 -73.79498 27 ft 23 kts
2026-05-06 05:19 40.64439 -73.79492 25 ft 23 kts 355°
2026-05-06 05:19 40.64578 -73.79517 26 ft 18 kts 342°
2026-05-06 05:20 40.64679 -73.79598 24 ft 13 kts 324°
2026-05-06 05:20 40.64757 -73.79582 23 ft 13 kts 52°
2026-05-06 05:20 40.64800 -73.79490 24 ft 10 kts 63°
2026-05-06 05:20 40.64830 -73.79418 27 ft 3 kts 62°
2026-05-06 05:21 40.64824 -73.79385 24 ft 4 kts 118°
2026-05-06 05:21 40.64793 -73.79357 23 ft 4 kts 150°
2026-05-06 05:21 40.64778 -73.79346 25 ft 2 kts 150°
2026-05-06 05:21 40.64776 -73.79345 22 ft 0 kts 150°